Wetterdaten: Donnerstag, 22.01.2015
Datum Zeit Auen-Temp. Temp. -10 cm Luftfeuchte Luftfeuchte Luftdruck Regen Wind Richtung Richtung Taupunkt Windchill Windben
22.01.2015 00:00 -3,5 C 1,4 C 89 % 89 % 1009,6 hPa 0,0 l/m 0,0 km/h (0 Bft) O-SO 112 -5,0 C -4,0 C 0,0 km/h (0 Bft)
22.01.2015 00:05 -3,5 C 1,4 C 89 % 89 % 1009,6 hPa 0,0 l/m 0,0 km/h (0 Bft) O-NO 67 -5,0 C -4,0 C 0,0 km/h (0 Bft)
22.01.2015 00:10 -3,5 C 1,4 C 89 % 89 % 1009,7 hPa 0,0 l/m 0,0 km/h (0 Bft) NO 45 -5,0 C -3,9 C 0,0 km/h (0 Bft)
22.01.2015 00:15 -3,5 C 1,4 C 89 % 89 % 1009,7 hPa 0,0 l/m 0,0 km/h (0 Bft) O-NO 67 -5,0 C -4,0 C 0,0 km/h (0 Bft)
22.01.2015 00:20 -3,5 C 1,4 C 89 % 89 % 1009,7 hPa 0,0 l/m 0,0 km/h (0 Bft) O-NO 67 -5,0 C -4,0 C 0,0 km/h (0 Bft)
22.01.2015 00:25 -3,5 C 1,4 C 89 % 89 % 1009,7 hPa 0,0 l/m 0,0 km/h (0 Bft) O-SO 112 -5,0 C -4,0 C 0,0 km/h (0 Bft)
22.01.2015 00:30 -3,5 C 1,4 C 89 % 89 % 1009,7 hPa 0,0 l/m 0,0 km/h (0 Bft) SW 225 -5,0 C -4,0 C 0,0 km/h (0 Bft)
22.01.2015 00:35 -3,5 C 1,4 C 89 % 89 % 1009,7 hPa 0,0 l/m 0,0 km/h (0 Bft) O-NO 67 -5,0 C -4,0 C 0,0 km/h (0 Bft)
22.01.2015 00:40 -3,5 C 1,4 C 89 % 89 % 1009,7 hPa 0,0 l/m 0,0 km/h (0 Bft) N-NO 22 -5,0 C -3,9 C 0,0 km/h (0 Bft)
22.01.2015 00:45 -3,5 C 1,4 C 89 % 89 % 1009,7 hPa 0,0 l/m 0,0 km/h (0 Bft) O 90 -5,0 C -4,0 C 0,0 km/h (0 Bft)
22.01.2015 00:50 -3,5 C 1,4 C 89 % 89 % 1009,7 hPa 0,0 l/m 0,0 km/h (0 Bft) O-NO 67 -5,0 C -4,0 C 0,0 km/h (0 Bft)
22.01.2015 00:55 -3,5 C 1,4 C 89 % 89 % 1009,7 hPa 0,0 l/m 0,0 km/h (0 Bft) O-NO 67 -5,0 C -3,9 C 0,0 km/h (0 Bft)
22.01.2015 01:00 -3,5 C 1,4 C 89 % 89 % 1009,7 hPa 0,0 l/m 0,0 km/h (0 Bft) N-NO 22 -5,0 C -4,0 C 0,0 km/h (0 Bft)
22.01.2015 01:05 -3,4 C 1,4 C 89 % 89 % 1009,7 hPa 0,0 l/m 0,0 km/h (0 Bft) NO 45 -4,9 C -3,9 C 0,0 km/h (0 Bft)
22.01.2015 01:10 -3,4 C 1,4 C 89 % 89 % 1009,7 hPa 0,0 l/m 0,3 km/h (0 Bft) NO 45 -4,9 C -3,9 C 0,0 km/h (0 Bft)
22.01.2015 01:15 -3,5 C 1,4 C 89 % 89 % 1009,7 hPa 0,0 l/m 0,3 km/h (0 Bft) NO 45 -5,0 C -3,9 C 0,0 km/h (0 Bft)
22.01.2015 01:20 -3,4 C 1,4 C 89 % 89 % 1009,7 hPa 0,0 l/m 0,0 km/h (0 Bft) NO 45 -4,9 C -3,9 C 0,0 km/h (0 Bft)
22.01.2015 01:25 -3,4 C 1,4 C 89 % 89 % 1009,7 hPa 0,0 l/m 0,0 km/h (0 Bft) N 360 -4,9 C -3,9 C 0,0 km/h (0 Bft)
22.01.2015 01:30 -3,5 C 1,4 C 89 % 89 % 1009,4 hPa 0,0 l/m 0,0 km/h (0 Bft) N-NO 22 -5,0 C -3,9 C 0,0 km/h (0 Bft)
22.01.2015 01:35 -3,5 C 1,4 C 89 % 89 % 1009,4 hPa 0,0 l/m 0,2 km/h (0 Bft) N-NO 22 -5,0 C -3,9 C 0,0 km/h (0 Bft)
22.01.2015 01:40 -3,4 C 1,4 C 89 % 89 % 1009,4 hPa 0,0 l/m 0,2 km/h (0 Bft) NO 45 -4,9 C -3,9 C 3,9 km/h (1 Bft)
22.01.2015 01:45 -3,4 C 1,4 C 89 % 89 % 1009,4 hPa 0,0 l/m 0,0 km/h (0 Bft) O 90 -4,9 C -3,9 C 0,0 km/h (0 Bft)
22.01.2015 01:50 -3,4 C 1,4 C 89 % 89 % 1009,2 hPa 0,0 l/m 0,0 km/h (0 Bft) O-NO 67 -4,9 C -3,9 C 0,0 km/h (0 Bft)
22.01.2015 01:55 -3,4 C 1,4 C 89 % 89 % 1009,2 hPa 0,0 l/m 0,0 km/h (0 Bft) O-NO 67 -4,9 C -3,8 C 0,0 km/h (0 Bft)
22.01.2015 02:00 -3,4 C 1,4 C 89 % 89 % 1009,2 hPa 0,0 l/m 0,0 km/h (0 Bft) O-NO 67 -4,9 C -3,8 C 0,0 km/h (0 Bft)
22.01.2015 02:05 -3,4 C 1,4 C 89 % 89 % 1009,2 hPa 0,0 l/m 0,0 km/h (0 Bft) N 360 -4,9 C -3,8 C 0,0 km/h (0 Bft)
22.01.2015 02:10 -3,4 C 1,4 C 89 % 89 % 1009,6 hPa 0,0 l/m 0,5 km/h (0 Bft) N-NO 22 -4,9 C -3,8 C 4,2 km/h (1 Bft)
22.01.2015 02:15 -3,4 C 1,4 C 89 % 89 % 1009,6 hPa 0,0 l/m 0,5 km/h (0 Bft) O-NO 67 -4,9 C -3,8 C 0,0 km/h (0 Bft)
22.01.2015 02:20 -3,4 C 1,4 C 89 % 89 % 1009,6 hPa 0,0 l/m 0,3 km/h (0 Bft) NO 45 -4,9 C -3,8 C 0,0 km/h (0 Bft)
22.01.2015 02:25 -3,4 C 1,4 C 89 % 89 % 1009,6 hPa 0,0 l/m 0,3 km/h (0 Bft) N-NO 22 -4,9 C -3,8 C 0,0 km/h (0 Bft)
22.01.2015 02:30 -3,4 C 1,5 C 89 % 89 % 1009,4 hPa 0,0 l/m 0,0 km/h (0 Bft) NW 315 -4,9 C -3,8 C 0,0 km/h (0 Bft)
22.01.2015 02:35 -3,4 C 1,5 C 89 % 89 % 1009,4 hPa 0,0 l/m 0,0 km/h (0 Bft) NO 45 -4,9 C -3,8 C 0,0 km/h (0 Bft)
22.01.2015 02:40 -3,4 C 1,5 C 89 % 89 % 1009,4 hPa 0,0 l/m 0,0 km/h (0 Bft) O-NO 67 -4,9 C -3,8 C 0,0 km/h (0 Bft)
22.01.2015 02:45 -3,4 C 1,5 C 89 % 89 % 1009,4 hPa 0,0 l/m 0,0 km/h (0 Bft) NO 45 -4,9 C -3,8 C 0,0 km/h (0 Bft)
22.01.2015 02:50 -3,4 C 1,5 C 89 % 89 % 1009,3 hPa 0,0 l/m 0,0 km/h (0 Bft) N-NO 22 -4,9 C -3,8 C 0,0 km/h (0 Bft)
22.01.2015 02:55 -3,3 C 1,5 C 89 % 89 % 1009,3 hPa 0,0 l/m 0,0 km/h (0 Bft) NO 45 -4,8 C -3,8 C 0,0 km/h (0 Bft)
22.01.2015 03:00 -3,3 C 1,5 C 89 % 89 % 1009,3 hPa 0,0 l/m 0,0 km/h (0 Bft) NO 45 -4,8 C -3,8 C 0,0 km/h (0 Bft)
22.01.2015 03:05 -3,3 C 1,5 C 89 % 89 % 1009,3 hPa 0,0 l/m 0,0 km/h (0 Bft) O-NO 67 -4,8 C -3,7 C 0,0 km/h (0 Bft)
22.01.2015 03:10 -3,3 C 1,5 C 89 % 89 % 1009,2 hPa 0,0 l/m 1,1 km/h (1 Bft) NO 45 -4,8 C -3,7 C 4,5 km/h (1 Bft)
22.01.2015 03:15 -3,3 C 1,5 C 89 % 89 % 1009,2 hPa 0,0 l/m 1,1 km/h (1 Bft) NO 45 -4,8 C -3,7 C 0,0 km/h (0 Bft)
22.01.2015 03:20 -3,3 C 1,5 C 89 % 89 % 1009,2 hPa 0,0 l/m 0,3 km/h (0 Bft) NO 45 -4,8 C -3,7 C 0,0 km/h (0 Bft)
22.01.2015 03:25 -3,3 C 1,5 C 89 % 89 % 1009,2 hPa 0,0 l/m 0,3 km/h (0 Bft) N-NO 22 -4,8 C -3,7 C 0,0 km/h (0 Bft)
22.01.2015 03:30 -3,3 C 1,5 C 89 % 89 % 1009,5 hPa 0,0 l/m 0,3 km/h (0 Bft) N-NO 22 -4,8 C -3,7 C 0,0 km/h (0 Bft)
22.01.2015 03:35 -3,3 C 1,5 C 89 % 89 % 1009,5 hPa 0,0 l/m 0,3 km/h (0 Bft) N-NO 22 -4,8 C -3,7 C 0,0 km/h (0 Bft)
22.01.2015 03:40 -3,3 C 1,5 C 89 % 89 % 1009,5 hPa 0,0 l/m 0,0 km/h (0 Bft) O-NO 67 -4,8 C -3,7 C 0,0 km/h (0 Bft)
22.01.2015 03:45 -3,3 C 1,5 C 89 % 89 % 1009,5 hPa 0,0 l/m 0,0 km/h (0 Bft) O-NO 67 -4,8 C -3,7 C 0,0 km/h (0 Bft)
22.01.2015 03:50 -3,4 C 1,5 C 89 % 89 % 1009,4 hPa 0,0 l/m 0,0 km/h (0 Bft) NO 45 -4,9 C -3,7 C 0,0 km/h (0 Bft)
22.01.2015 03:55 -3,4 C 1,5 C 89 % 89 % 1009,4 hPa 0,0 l/m 0,2 km/h (0 Bft) O-NO 67 -4,9 C -3,7 C 0,0 km/h (0 Bft)
22.01.2015 04:00 -3,4 C 1,5 C 89 % 89 % 1009,4 hPa 0,0 l/m 1,0 km/h (0 Bft) O-NO 67 -4,9 C -3,8 C 5,8 km/h (2 Bft)
22.01.2015 04:05 -3,3 C 1,5 C 89 % 89 % 1009,4 hPa 0,0 l/m 1,0 km/h (0 Bft) N-NO 22 -4,8 C -3,7 C 0,0 km/h (0 Bft)
22.01.2015 04:10 -3,3 C 1,5 C 89 % 89 % 1009,3 hPa 0,0 l/m 0,8 km/h (0 Bft) O-SO 112 -4,8 C -3,7 C 0,0 km/h (0 Bft)
22.01.2015 04:15 -3,3 C 1,5 C 89 % 89 % 1009,3 hPa 0,0 l/m 0,5 km/h (0 Bft) O-NO 67 -4,8 C -3,7 C 0,0 km/h (0 Bft)
22.01.2015 04:20 -3,3 C 1,5 C 89 % 89 % 1009,3 hPa 0,0 l/m 0,0 km/h (0 Bft) S-SW 202 -4,8 C -3,7 C 0,0 km/h (0 Bft)
22.01.2015 04:25 -3,3 C 1,5 C 89 % 89 % 1009,3 hPa 0,0 l/m 0,3 km/h (0 Bft) N-NO 22 -4,8 C -3,7 C 3,1 km/h (1 Bft)
22.01.2015 04:30 -3,3 C 1,5 C 89 % 89 % 1009,2 hPa 0,0 l/m 0,5 km/h (0 Bft) O-NO 67 -4,8 C -3,7 C 0,0 km/h (0 Bft)
22.01.2015 04:35 -3,3 C 1,5 C 89 % 89 % 1009,2 hPa 0,0 l/m 0,8 km/h (0 Bft) N-NO 22 -4,8 C -3,7 C 0,0 km/h (0 Bft)
22.01.2015 04:40 -3,4 C 1,5 C 89 % 89 % 1009,2 hPa 0,0 l/m 0,6 km/h (0 Bft) O-NO 67 -4,9 C -3,8 C 0,0 km/h (0 Bft)
22.01.2015 04:45 -3,4 C 1,5 C 89 % 89 % 1009,2 hPa 0,0 l/m 0,3 km/h (0 Bft) O-NO 67 -4,9 C -3,8 C 0,0 km/h (0 Bft)
22.01.2015 04:50 -3,3 C 1,5 C 89 % 89 % 1009,1 hPa 0,0 l/m 0,0 km/h (0 Bft) NO 45 -4,8 C -3,8 C 0,0 km/h (0 Bft)
22.01.2015 04:55 -3,4 C 1,5 C 89 % 89 % 1009,1 hPa 0,0 l/m 0,0 km/h (0 Bft) NO 45 -4,9 C -3,8 C 0,0 km/h (0 Bft)
22.01.2015 05:00 -3,4 C 1,5 C 89 % 89 % 1009,1 hPa 0,0 l/m 0,2 km/h (0 Bft) NO 45 -4,9 C -3,8 C 0,0 km/h (0 Bft)
22.01.2015 05:05 -3,4 C 1,5 C 89 % 89 % 1009,1 hPa 0,0 l/m 0,6 km/h (0 Bft) N-NO 22 -4,9 C -3,8 C 0,0 km/h (0 Bft)
22.01.2015 05:10 -3,4 C 1,5 C 89 % 89 % 1009,1 hPa 0,0 l/m 0,6 km/h (0 Bft) N-NO 22 -4,9 C -3,8 C 2,6 km/h (1 Bft)
22.01.2015 05:15 -3,4 C 1,5 C 89 % 89 % 1009,1 hPa 0,0 l/m 0,3 km/h (0 Bft) NO 45 -4,9 C -3,8 C 0,0 km/h (0 Bft)
22.01.2015 05:20 -3,4 C 1,5 C 89 % 89 % 1009,1 hPa 0,0 l/m 0,3 km/h (0 Bft) N-NO 22 -4,9 C -3,9 C 0,0 km/h (0 Bft)
22.01.2015 05:25 -3,4 C 1,5 C 89 % 89 % 1009,1 hPa 0,0 l/m 0,0 km/h (0 Bft) O-NO 67 -4,9 C -3,9 C 0,0 km/h (0 Bft)
22.01.2015 05:30 -3,4 C 1,5 C 89 % 89 % 1009,0 hPa 0,0 l/m 0,0 km/h (0 Bft) NO 45 -4,9 C -3,9 C 0,0 km/h (0 Bft)
22.01.2015 05:35 -3,4 C 1,5 C 89 % 89 % 1009,0 hPa 0,0 l/m 0,0 km/h (0 Bft) N-NO 22 -4,9 C -3,9 C 0,0 km/h (0 Bft)
22.01.2015 05:40 -3,4 C 1,5 C 89 % 89 % 1009,0 hPa 0,0 l/m 0,0 km/h (0 Bft) W-NW 292 -4,9 C -3,9 C 0,0 km/h (0 Bft)
22.01.2015 05:45 -3,4 C 1,5 C 89 % 89 % 1009,0 hPa 0,0 l/m 0,0 km/h (0 Bft) NO 45 -4,9 C -3,9 C 0,0 km/h (0 Bft)
22.01.2015 05:50 -3,4 C 1,5 C 89 % 89 % 1009,1 hPa 0,0 l/m 0,0 km/h (0 Bft) O-NO 67 -4,9 C -3,9 C 0,0 km/h (0 Bft)
22.01.2015 05:55 -3,4 C 1,5 C 89 % 89 % 1009,1 hPa 0,0 l/m 0,0 km/h (0 Bft) O-NO 67 -4,9 C -3,9 C 0,0 km/h (0 Bft)
22.01.2015 06:00 -3,4 C 1,5 C 89 % 89 % 1009,1 hPa 0,0 l/m 0,0 km/h (0 Bft) O-NO 67 -4,9 C -3,9 C 0,0 km/h (0 Bft)
22.01.2015 06:05 -3,4 C 1,5 C 89 % 89 % 1009,1 hPa 0,0 l/m 0,0 km/h (0 Bft) O-SO 112 -4,9 C -3,9 C 0,0 km/h (0 Bft)
22.01.2015 06:10 -3,4 C 1,5 C 89 % 89 % 1009,2 hPa 0,0 l/m 0,0 km/h (0 Bft) O-SO 112 -4,9 C -3,9 C 0,0 km/h (0 Bft)
22.01.2015 06:15 -3,4 C 1,5 C 89 % 89 % 1009,2 hPa 0,0 l/m 0,0 km/h (0 Bft) N-NO 22 -4,9 C -3,9 C 0,0 km/h (0 Bft)
22.01.2015 06:20 -3,4 C 1,5 C 89 % 89 % 1009,2 hPa 0,0 l/m 0,0 km/h (0 Bft) NW 315 -4,9 C -3,9 C 0,0 km/h (0 Bft)
22.01.2015 06:25 -3,4 C 1,5 C 89 % 89 % 1009,2 hPa 0,0 l/m 0,0 km/h (0 Bft) W 270 -4,9 C -3,9 C 0,0 km/h (0 Bft)
22.01.2015 06:30 -3,4 C 1,5 C 89 % 89 % 1009,4 hPa 0,0 l/m 0,0 km/h (0 Bft) W 270 -4,9 C -3,9 C 0,0 km/h (0 Bft)
22.01.2015 06:35 -3,4 C 1,5 C 89 % 89 % 1009,4 hPa 0,0 l/m 0,0 km/h (0 Bft) W 270 -4,9 C -3,9 C 0,0 km/h (0 Bft)
22.01.2015 06:40 -3,4 C 1,5 C 89 % 89 % 1009,4 hPa 0,0 l/m 0,0 km/h (0 Bft) W 270 -4,9 C -3,9 C 0,0 km/h (0 Bft)
22.01.2015 06:45 -3,4 C 1,5 C 89 % 89 % 1009,4 hPa 0,0 l/m 0,0 km/h (0 Bft) NW 315 -4,9 C -3,9 C 0,0 km/h (0 Bft)
22.01.2015 06:50 -3,4 C 1,5 C 89 % 89 % 1009,5 hPa 0,0 l/m 0,0 km/h (0 Bft) W 270 -4,9 C -3,8 C 0,0 km/h (0 Bft)
22.01.2015 06:55 -3,4 C 1,5 C 89 % 89 % 1009,5 hPa 0,0 l/m 0,0 km/h (0 Bft) NW 315 -4,9 C -3,8 C 0,0 km/h (0 Bft)
22.01.2015 07:00 -3,4 C 1,5 C 89 % 89 % 1009,5 hPa 0,0 l/m 0,0 km/h (0 Bft) O-NO 67 -4,9 C -3,8 C 0,0 km/h (0 Bft)
22.01.2015 07:05 -3,4 C 1,5 C 89 % 89 % 1009,5 hPa 0,0 l/m 0,0 km/h (0 Bft) O-NO 67 -4,9 C -3,8 C 0,0 km/h (0 Bft)
22.01.2015 07:10 -3,4 C 1,5 C 89 % 89 % 1009,6 hPa 0,0 l/m 0,0 km/h (0 Bft) NO 45 -4,9 C -3,8 C 0,0 km/h (0 Bft)
22.01.2015 07:15 -3,4 C 1,5 C 89 % 89 % 1009,6 hPa 0,0 l/m 0,0 km/h (0 Bft) O-NO 67 -4,9 C -3,8 C 0,0 km/h (0 Bft)
22.01.2015 07:20 -3,4 C 1,5 C 89 % 89 % 1009,6 hPa 0,0 l/m 0,0 km/h (0 Bft) O-NO 67 -4,9 C -3,8 C 0,0 km/h (0 Bft)
22.01.2015 07:25 -3,4 C 1,5 C 89 % 89 % 1009,6 hPa 0,0 l/m 0,0 km/h (0 Bft) O-NO 67 -4,9 C -3,9 C 0,0 km/h (0 Bft)
22.01.2015 07:30 -3,4 C 1,5 C 89 % 89 % 1009,6 hPa 0,0 l/m 0,0 km/h (0 Bft) N-NO 22 -4,9 C -3,9 C 0,0 km/h (0 Bft)
22.01.2015 07:35 -3,4 C 1,5 C 89 % 89 % 1009,6 hPa 0,0 l/m 0,0 km/h (0 Bft) O-SO 112 -4,9 C -3,9 C 0,0 km/h (0 Bft)
22.01.2015 07:40 -3,4 C 1,5 C 89 % 89 % 1009,6 hPa 0,0 l/m 0,0 km/h (0 Bft) O-NO 67 -4,9 C -3,9 C 0,0 km/h (0 Bft)
22.01.2015 07:45 -3,4 C 1,5 C 89 % 89 % 1009,6 hPa 0,0 l/m 0,0 km/h (0 Bft) NO 45 -4,9 C -3,9 C 0,0 km/h (0 Bft)
22.01.2015 07:50 -3,4 C 1,5 C 89 % 89 % 1009,9 hPa 0,0 l/m 0,0 km/h (0 Bft) N-NO 22 -4,9 C -3,9 C 0,0 km/h (0 Bft)
22.01.2015 07:55 -3,4 C 1,5 C 89 % 89 % 1009,9 hPa 0,0 l/m 0,0 km/h (0 Bft) N-NO 22 -4,9 C -3,9 C 0,0 km/h (0 Bft)
22.01.2015 08:00 -3,4 C 1,5 C 89 % 89 % 1009,9 hPa 0,0 l/m 0,0 km/h (0 Bft) O-NO 67 -4,9 C -3,8 C 0,0 km/h (0 Bft)
22.01.2015 08:05 -3,3 C 1,5 C 89 % 89 % 1009,9 hPa 0,0 l/m 0,0 km/h (0 Bft) O-NO 67 -4,8 C -3,8 C 0,0 km/h (0 Bft)
22.01.2015 08:10 -3,1 C 1,5 C 89 % 89 % 1010,1 hPa 0,0 l/m 0,0 km/h (0 Bft) N-NO 22 -4,6 C -3,7 C 0,0 km/h (0 Bft)
22.01.2015 08:15 -3,1 C 1,5 C 89 % 89 % 1010,1 hPa 0,0 l/m 0,0 km/h (0 Bft) O-NO 67 -4,6 C -3,7 C 0,0 km/h (0 Bft)
22.01.2015 08:20 -3,1 C 1,5 C 89 % 89 % 1010,1 hPa 0,0 l/m 0,0 km/h (0 Bft) NO 45 -4,6 C -3,6 C 0,0 km/h (0 Bft)
22.01.2015 08:25 -3,0 C 1,5 C 89 % 89 % 1010,1 hPa 0,0 l/m 0,0 km/h (0 Bft) NO 45 -4,6 C -3,5 C 0,0 km/h (0 Bft)
22.01.2015 08:30 -3,0 C 1,5 C 89 % 89 % 1010,0 hPa 0,0 l/m 0,0 km/h (0 Bft) N-NO 22 -4,6 C -3,4 C 0,0 km/h (0 Bft)
22.01.2015 08:35 -2,9 C 1,5 C 89 % 89 % 1010,0 hPa 0,0 l/m 0,0 km/h (0 Bft) O-NO 67 -4,5 C -3,4 C 0,0 km/h (0 Bft)
22.01.2015 08:40 -3,0 C 1,5 C 89 % 89 % 1010,0 hPa 0,0 l/m 0,0 km/h (0 Bft) NO 45 -4,6 C -3,3 C 0,0 km/h (0 Bft)
22.01.2015 08:45 -2,9 C 1,5 C 89 % 89 % 1010,0 hPa 0,0 l/m 0,0 km/h (0 Bft) O-NO 67 -4,5 C -3,3 C 0,0 km/h (0 Bft)
22.01.2015 08:50 -2,6 C 1,5 C 89 % 89 % 1010,3 hPa 0,0 l/m 0,0 km/h (0 Bft) N 360 -4,2 C -3,1 C 0,0 km/h (0 Bft)
22.01.2015 08:55 -2,6 C 1,5 C 89 % 89 % 1010,3 hPa 0,0 l/m 0,0 km/h (0 Bft) N-NW 337 -4,2 C -3,1 C 0,0 km/h (0 Bft)
22.01.2015 09:00 -2,5 C 1,5 C 89 % 89 % 1010,3 hPa 0,0 l/m 0,0 km/h (0 Bft) NW 315 -4,1 C -2,9 C 0,0 km/h (0 Bft)
22.01.2015 09:05 -2,4 C 1,5 C 89 % 89 % 1010,3 hPa 0,0 l/m 0,0 km/h (0 Bft) NW 315 -4,0 C -2,8 C 0,0 km/h (0 Bft)
22.01.2015 09:10 -2,4 C 1,5 C 89 % 89 % 1010,7 hPa 0,0 l/m 0,0 km/h (0 Bft) NW 315 -4,0 C -2,8 C 0,0 km/h (0 Bft)
22.01.2015 09:15 -2,2 C 1,5 C 89 % 89 % 1010,7 hPa 0,0 l/m 0,0 km/h (0 Bft) W-NW 292 -3,8 C -2,8 C 0,0 km/h (0 Bft)
22.01.2015 09:20 -2,0 C 1,4 C 89 % 89 % 1010,7 hPa 0,0 l/m 0,0 km/h (0 Bft) NW 315 -3,6 C -2,6 C 0,0 km/h (0 Bft)
22.01.2015 09:25 -1,9 C 1,4 C 89 % 89 % 1010,7 hPa 0,0 l/m 0,0 km/h (0 Bft) NW 315 -3,5 C -2,4 C 0,0 km/h (0 Bft)
22.01.2015 09:30 -1,8 C 1,4 C 89 % 89 % 1010,8 hPa 0,0 l/m 0,0 km/h (0 Bft) NW 315 -3,4 C -2,2 C 0,0 km/h (0 Bft)
22.01.2015 09:35 -1,6 C 1,4 C 89 % 89 % 1010,8 hPa 0,0 l/m 0,0 km/h (0 Bft) W 270 -3,2 C -2,0 C 0,0 km/h (0 Bft)
22.01.2015 09:40 -1,5 C 1,4 C 89 % 89 % 1010,8 hPa 0,0 l/m 0,0 km/h (0 Bft) NW 315 -3,1 C -1,9 C 0,0 km/h (0 Bft)
22.01.2015 09:45 -1,5 C 1,4 C 89 % 89 % 1010,8 hPa 0,0 l/m 0,0 km/h (0 Bft) NW 315 -3,1 C -1,9 C 0,0 km/h (0 Bft)
22.01.2015 09:50 -0,8 C 1,5 C 89 % 89 % 1011,1 hPa 0,0 l/m 0,0 km/h (0 Bft) O-SO 112 -2,4 C -1,6 C 0,0 km/h (0 Bft)
22.01.2015 09:55 -1,0 C 1,5 C 89 % 89 % 1011,1 hPa 0,0 l/m 0,0 km/h (0 Bft) W 270 -2,6 C -1,3 C 0,0 km/h (0 Bft)
22.01.2015 10:00 -1,3 C 1,5 C 89 % 89 % 1011,1 hPa 0,0 l/m 0,3 km/h (0 Bft) W-NW 292 -2,9 C -1,3 C 0,0 km/h (0 Bft)
22.01.2015 10:05 -1,3 C 1,5 C 89 % 89 % 1011,1 hPa 0,0 l/m 0,3 km/h (0 Bft) N-NW 337 -2,9 C -1,4 C 0,0 km/h (0 Bft)
22.01.2015 10:10 -1,4 C 1,5 C 88 % 88 % 1011,7 hPa 0,0 l/m 0,0 km/h (0 Bft) W 270 -3,1 C -1,6 C 0,0 km/h (0 Bft)
22.01.2015 10:15 -1,4 C 1,4 C 88 % 88 % 1011,7 hPa 0,0 l/m 0,0 km/h (0 Bft) W 270 -3,1 C -1,7 C 0,0 km/h (0 Bft)
22.01.2015 10:20 -1,4 C 1,4 C 88 % 88 % 1011,7 hPa 0,0 l/m 0,0 km/h (0 Bft) NW 315 -3,1 C -1,8 C 0,0 km/h (0 Bft)
22.01.2015 10:25 -1,3 C 1,4 C 88 % 88 % 1011,7 hPa 0,0 l/m 0,0 km/h (0 Bft) W-SW 247 -3,0 C -1,8 C 0,0 km/h (0 Bft)
22.01.2015 10:30 -1,2 C 1,4 C 88 % 88 % 1011,6 hPa 0,0 l/m 0,0 km/h (0 Bft) W 270 -2,9 C -1,9 C 0,0 km/h (0 Bft)
22.01.2015 10:35 -1,2 C 1,4 C 88 % 88 % 1011,6 hPa 0,0 l/m 0,0 km/h (0 Bft) W-SW 247 -2,9 C -1,9 C 0,0 km/h (0 Bft)
22.01.2015 10:40 -1,2 C 1,4 C 88 % 88 % 1011,6 hPa 0,0 l/m 0,0 km/h (0 Bft) W-SW 247 -2,9 C -1,7 C 0,0 km/h (0 Bft)
22.01.2015 10:45 -0,8 C 1,4 C 88 % 88 % 1011,6 hPa 0,0 l/m 0,0 km/h (0 Bft) W-SW 247 -2,5 C -1,8 C 0,0 km/h (0 Bft)
22.01.2015 10:50 0,0 C 1,4 C 88 % 88 % 1012,1 hPa 0,0 l/m 0,0 km/h (0 Bft) NW 315 -1,7 C -1,2 C 0,0 km/h (0 Bft)
22.01.2015 10:55 -0,1 C 1,5 C 88 % 88 % 1012,1 hPa 0,0 l/m 0,0 km/h (0 Bft) NW 315 -1,8 C -1,0 C 0,0 km/h (0 Bft)
22.01.2015 11:00 -0,2 C 1,5 C 88 % 88 % 1012,1 hPa 0,0 l/m 0,0 km/h (0 Bft) NW 315 -1,9 C -0,7 C 0,0 km/h (0 Bft)
22.01.2015 11:05 -0,1 C 1,5 C 88 % 88 % 1012,1 hPa 0,0 l/m 0,0 km/h (0 Bft) NW 315 -1,8 C -0,7 C 0,0 km/h (0 Bft)
22.01.2015 11:10 0,2 C 1,5 C 87 % 87 % 1012,3 hPa 0,0 l/m 0,0 km/h (0 Bft) N 360 -1,7 C -0,4 C 0,0 km/h (0 Bft)
22.01.2015 11:15 0,1 C 1,5 C 87 % 87 % 1012,3 hPa 0,0 l/m 0,0 km/h (0 Bft) NW 315 -1,8 C -0,2 C 0,0 km/h (0 Bft)
22.01.2015 11:20 1,0 C 1,5 C 87 % 87 % 1012,3 hPa 0,0 l/m 0,0 km/h (0 Bft) NW 315 -0,9 C 0,3 C 0,0 km/h (0 Bft)
22.01.2015 11:25 1,4 C 1,5 C 86 % 87 % 1012,3 hPa 0,0 l/m 0,0 km/h (0 Bft) W-NW 292 -0,7 C 0,9 C 0,0 km/h (0 Bft)
22.01.2015 11:30 1,2 C 1,5 C 84 % 86 % 1012,2 hPa 0,0 l/m 0,0 km/h (0 Bft) N 360 -1,2 C 1,6 C 0,0 km/h (0 Bft)
22.01.2015 11:35 2,4 C 1,5 C 84 % 86 % 1012,2 hPa 0,0 l/m 0,0 km/h (0 Bft) W 270 -0,0 C 2,3 C 0,0 km/h (0 Bft)
22.01.2015 11:40 2,5 C 1,4 C 81 % 85 % 1012,2 hPa 0,0 l/m 0,0 km/h (0 Bft) W 270 -0,4 C 3,3 C 0,0 km/h (0 Bft)
22.01.2015 11:45 2,5 C 1,4 C 79 % 85 % 1012,2 hPa 0,0 l/m 0,0 km/h (0 Bft) W 270 -0,8 C 3,5 C 0,0 km/h (0 Bft)
22.01.2015 11:50 3,0 C 1,4 C 76 % 84 % 1012,4 hPa 0,0 l/m 0,0 km/h (0 Bft) W-NW 292 -0,8 C 3,8 C 0,0 km/h (0 Bft)
22.01.2015 11:55 2,7 C 1,4 C 76 % 83 % 1012,4 hPa 0,0 l/m 0,0 km/h (0 Bft) NW 315 -1,1 C 4,0 C 0,0 km/h (0 Bft)
22.01.2015 12:00 2,0 C 1,4 C 75 % 82 % 1012,4 hPa 0,0 l/m 0,0 km/h (0 Bft) NW 315 -2,0 C 3,6 C 0,0 km/h (0 Bft)
22.01.2015 12:05 1,6 C 1,4 C 74 % 82 % 1012,4 hPa 0,0 l/m 0,0 km/h (0 Bft) W-NW 292 -2,5 C 3,2 C 0,0 km/h (0 Bft)
22.01.2015 12:10 1,2 C 1,5 C 75 % 81 % 1012,4 hPa 0,0 l/m 0,0 km/h (0 Bft) NW 315 -2,7 C 2,3 C 0,0 km/h (0 Bft)
22.01.2015 12:15 1,5 C 1,5 C 76 % 81 % 1012,4 hPa 0,0 l/m 0,0 km/h (0 Bft) NW 315 -2,3 C 2,1 C 0,0 km/h (0 Bft)
22.01.2015 12:20 1,8 C 1,5 C 76 % 80 % 1012,4 hPa 0,0 l/m 0,0 km/h (0 Bft) W-NW 292 -2,0 C 2,3 C 0,0 km/h (0 Bft)
22.01.2015 12:25 2,0 C 1,5 C 75 % 80 % 1012,4 hPa 0,0 l/m 0,0 km/h (0 Bft) W 270 -2,0 C 2,3 C 0,0 km/h (0 Bft)
22.01.2015 12:30 1,7 C 1,5 C 74 % 79 % 1012,3 hPa 0,0 l/m 0,0 km/h (0 Bft) W-NW 292 -2,4 C 2,3 C 0,0 km/h (0 Bft)
22.01.2015 12:35 1,7 C 1,5 C 74 % 79 % 1012,3 hPa 0,0 l/m 0,0 km/h (0 Bft) W 270 -2,4 C 2,2 C 0,0 km/h (0 Bft)
22.01.2015 12:40 1,4 C 1,5 C 73 % 79 % 1012,3 hPa 0,0 l/m 0,2 km/h (0 Bft) W 270 -2,9 C 2,1 C 3,7 km/h (1 Bft)
22.01.2015 12:45 1,4 C 1,5 C 73 % 79 % 1012,3 hPa 0,0 l/m 0,3 km/h (0 Bft) W 270 -2,9 C 1,9 C 0,0 km/h (0 Bft)
22.01.2015 12:50 1,0 C 1,5 C 73 % 78 % 1012,3 hPa 0,0 l/m 0,5 km/h (0 Bft) W 270 -3,3 C 1,5 C 3,2 km/h (1 Bft)
22.01.2015 12:55 0,9 C 1,5 C 74 % 78 % 1012,3 hPa 0,0 l/m 0,3 km/h (0 Bft) NW 315 -3,2 C 1,4 C 0,0 km/h (0 Bft)
22.01.2015 13:00 0,9 C 1,5 C 74 % 78 % 1012,3 hPa 0,0 l/m 0,6 km/h (0 Bft) W-NW 292 -3,2 C 1,2 C 2,6 km/h (1 Bft)
22.01.2015 13:05 0,8 C 1,5 C 75 % 78 % 1012,3 hPa 0,0 l/m 0,3 km/h (0 Bft) W-NW 292 -3,1 C 0,9 C 0,0 km/h (0 Bft)
22.01.2015 13:10 0,5 C 1,5 C 75 % 78 % 1012,4 hPa 0,0 l/m 0,3 km/h (0 Bft) W 270 -3,4 C 0,8 C 2,1 km/h (1 Bft)
22.01.2015 13:15 0,7 C 1,5 C 76 % 78 % 1012,4 hPa 0,0 l/m 0,2 km/h (0 Bft) W 270 -3,0 C 0,6 C 0,0 km/h (0 Bft)
22.01.2015 13:20 0,6 C 1,5 C 76 % 78 % 1012,4 hPa 0,0 l/m 0,2 km/h (0 Bft) NW 315 -3,1 C 0,7 C 0,0 km/h (0 Bft)
22.01.2015 13:25 0,6 C 1,4 C 76 % 78 % 1012,4 hPa 0,0 l/m 0,0 km/h (0 Bft) W-SW 247 -3,1 C 0,6 C 0,0 km/h (0 Bft)
22.01.2015 13:30 0,6 C 1,5 C 76 % 78 % 1012,4 hPa 0,0 l/m 1,1 km/h (1 Bft) W 270 -3,1 C 0,5 C 0,0 km/h (0 Bft)
22.01.2015 13:35 0,6 C 1,5 C 76 % 78 % 1012,4 hPa 0,0 l/m 1,3 km/h (1 Bft) W 270 -3,1 C 0,5 C 3,1 km/h (1 Bft)
22.01.2015 13:40 0,1 C 1,4 C 76 % 78 % 1012,4 hPa 0,0 l/m 2,1 km/h (1 Bft) W 270 -3,6 C 0,2 C 4,0 km/h (1 Bft)
22.01.2015 13:45 0,0 C 1,4 C 77 % 78 % 1012,4 hPa 0,0 l/m 3,1 km/h (1 Bft) W-NW 292 -3,5 C -0,5 C 1,8 km/h (1 Bft)
22.01.2015 13:50 0,1 C 1,4 C 78 % 78 % 1012,6 hPa 0,0 l/m 1,3 km/h (1 Bft) W-NW 292 -3,3 C -0,2 C 0,0 km/h (0 Bft)
22.01.2015 13:55 -0,1 C 1,4 C 78 % 78 % 1012,6 hPa 0,0 l/m 1,3 km/h (1 Bft) W 270 -3,5 C -0,2 C 5,6 km/h (1 Bft)
22.01.2015 14:00 0,0 C 1,4 C 78 % 78 % 1012,6 hPa 0,0 l/m 2,9 km/h (1 Bft) W 270 -3,4 C -0,6 C 6,8 km/h (2 Bft)
22.01.2015 14:05 0,4 C 1,4 C 79 % 79 % 1012,6 hPa 0,0 l/m 2,7 km/h (1 Bft) NW 315 -2,8 C -0,5 C 0,0 km/h (0 Bft)
22.01.2015 14:10 0,5 C 1,4 C 78 % 79 % 1012,7 hPa 0,0 l/m 1,3 km/h (1 Bft) W 270 -2,9 C 0,3 C 3,9 km/h (1 Bft)
22.01.2015 14:15 0,3 C 1,4 C 78 % 79 % 1012,7 hPa 0,0 l/m 1,9 km/h (1 Bft) W 270 -3,1 C 0,2 C 5,0 km/h (1 Bft)
22.01.2015 14:20 0,0 C 1,4 C 78 % 79 % 1012,7 hPa 0,0 l/m 3,4 km/h (1 Bft) W-SW 247 -3,4 C -0,4 C 4,0 km/h (1 Bft)
22.01.2015 14:25 0,2 C 1,4 C 79 % 79 % 1012,7 hPa 0,0 l/m 2,7 km/h (1 Bft) W-SW 247 -3,0 C -0,2 C 4,8 km/h (1 Bft)
22.01.2015 14:30 0,1 C 1,4 C 79 % 79 % 1012,7 hPa 0,0 l/m 1,9 km/h (1 Bft) W-NW 292 -3,1 C 0,0 C 4,0 km/h (1 Bft)
22.01.2015 14:35 -0,1 C 1,4 C 79 % 79 % 1012,7 hPa 0,0 l/m 1,9 km/h (1 Bft) SW 225 -3,3 C -0,2 C 0,0 km/h (0 Bft)
22.01.2015 14:40 -0,2 C 1,4 C 79 % 79 % 1012,7 hPa 0,0 l/m 1,1 km/h (1 Bft) W-NW 292 -3,4 C -0,2 C 0,0 km/h (0 Bft)
22.01.2015 14:45 -0,2 C 1,4 C 79 % 79 % 1012,7 hPa 0,0 l/m 0,2 km/h (0 Bft) W-NW 292 -3,4 C -0,4 C 0,0 km/h (0 Bft)
22.01.2015 14:50 -0,3 C 1,4 C 79 % 79 % 1012,9 hPa 0,0 l/m 0,3 km/h (0 Bft) NW 315 -3,5 C -0,6 C 0,0 km/h (0 Bft)
22.01.2015 14:55 -0,5 C 1,4 C 79 % 79 % 1012,9 hPa 0,0 l/m 0,3 km/h (0 Bft) NW 315 -3,7 C -0,8 C 0,0 km/h (0 Bft)
22.01.2015 15:00 -0,7 C 1,4 C 79 % 79 % 1012,9 hPa 0,0 l/m 0,2 km/h (0 Bft) NW 315 -3,9 C -1,0 C 2,1 km/h (1 Bft)
22.01.2015 15:05 -0,7 C 1,4 C 79 % 79 % 1012,9 hPa 0,0 l/m 0,2 km/h (0 Bft) NW 315 -3,9 C -1,0 C 0,0 km/h (0 Bft)
22.01.2015 15:10 -0,9 C 1,4 C 80 % 80 % 1012,9 hPa 0,0 l/m 0,8 km/h (0 Bft) W-NW 292 -3,9 C -1,3 C 5,8 km/h (2 Bft)
22.01.2015 15:15 -1,0 C 1,4 C 80 % 80 % 1012,9 hPa 0,0 l/m 1,6 km/h (1 Bft) NW 315 -4,0 C -1,4 C 3,7 km/h (1 Bft)
22.01.2015 15:20 -1,0 C 1,4 C 80 % 80 % 1012,9 hPa 0,0 l/m 1,4 km/h (1 Bft) NW 315 -4,0 C -1,5 C 3,2 km/h (1 Bft)
22.01.2015 15:25 -1,1 C 1,4 C 81 % 81 % 1012,9 hPa 0,0 l/m 0,8 km/h (0 Bft) NW 315 -3,9 C -1,6 C 0,0 km/h (0 Bft)
22.01.2015 15:30 -1,2 C 1,4 C 81 % 81 % 1013,1 hPa 0,0 l/m 0,3 km/h (0 Bft) W-NW 292 -4,0 C -1,7 C 0,0 km/h (0 Bft)
22.01.2015 15:35 -1,2 C 1,4 C 81 % 81 % 1013,1 hPa 0,0 l/m 0,0 km/h (0 Bft) W-NW 292 -4,0 C -1,7 C 0,0 km/h (0 Bft)
22.01.2015 15:40 -1,4 C 1,4 C 81 % 81 % 1013,1 hPa 0,0 l/m 0,0 km/h (0 Bft) W 270 -4,2 C -1,9 C 0,0 km/h (0 Bft)
22.01.2015 15:45 -1,5 C 1,4 C 81 % 81 % 1013,1 hPa 0,0 l/m 0,0 km/h (0 Bft) NW 315 -4,3 C -1,9 C 0,0 km/h (0 Bft)
22.01.2015 15:50 -1,5 C 1,4 C 82 % 82 % 1013,2 hPa 0,0 l/m 0,0 km/h (0 Bft) W 270 -4,2 C -1,9 C 0,0 km/h (0 Bft)
22.01.2015 15:55 -1,5 C 1,4 C 82 % 82 % 1013,2 hPa 0,0 l/m 0,0 km/h (0 Bft) W-NW 292 -4,2 C -2,0 C 0,0 km/h (0 Bft)
22.01.2015 16:00 -1,6 C 1,4 C 82 % 82 % 1013,2 hPa 0,0 l/m 0,2 km/h (0 Bft) W 270 -4,3 C -2,1 C 2,4 km/h (1 Bft)
22.01.2015 16:05 -1,6 C 1,4 C 82 % 82 % 1013,2 hPa 0,0 l/m 1,1 km/h (1 Bft) W-NW 292 -4,3 C -2,1 C 2,9 km/h (1 Bft)
22.01.2015 16:10 -1,8 C 1,4 C 82 % 82 % 1013,1 hPa 0,0 l/m 1,9 km/h (1 Bft) NW 315 -4,5 C -2,2 C 3,5 km/h (1 Bft)
22.01.2015 16:15 -1,9 C 1,4 C 82 % 82 % 1013,1 hPa 0,0 l/m 1,4 km/h (1 Bft) NW 315 -4,6 C -2,3 C 0,0 km/h (0 Bft)
22.01.2015 16:20 -1,9 C 1,5 C 83 % 83 % 1013,1 hPa 0,0 l/m 1,0 km/h (0 Bft) W 270 -4,4 C -2,4 C 2,7 km/h (1 Bft)
22.01.2015 16:25 -2,0 C 1,5 C 83 % 83 % 1013,1 hPa 0,0 l/m 0,6 km/h (0 Bft) NW 315 -4,5 C -2,5 C 0,0 km/h (0 Bft)
22.01.2015 16:30 -2,0 C 1,5 C 83 % 83 % 1013,5 hPa 0,0 l/m 0,5 km/h (0 Bft) W-NW 292 -4,5 C -2,6 C 0,0 km/h (0 Bft)
22.01.2015 16:35 -2,2 C 1,5 C 83 % 83 % 1013,5 hPa 0,0 l/m 1,3 km/h (1 Bft) W 270 -4,7 C -2,6 C 4,2 km/h (1 Bft)
22.01.2015 16:40 -2,2 C 1,5 C 83 % 83 % 1013,5 hPa 0,0 l/m 1,8 km/h (1 Bft) NW 315 -4,7 C -2,7 C 7,6 km/h (2 Bft)
22.01.2015 16:45 -2,3 C 1,5 C 83 % 83 % 1013,5 hPa 0,0 l/m 1,8 km/h (1 Bft) W 270 -4,8 C -2,8 C 3,9 km/h (1 Bft)
22.01.2015 16:50 -2,3 C 1,5 C 83 % 83 % 1013,5 hPa 0,0 l/m 1,4 km/h (1 Bft) NW 315 -4,8 C -2,8 C 0,0 km/h (0 Bft)
22.01.2015 16:55 -2,3 C 1,5 C 84 % 84 % 1013,5 hPa 0,0 l/m 0,8 km/h (0 Bft) W 270 -4,6 C -2,8 C 0,0 km/h (0 Bft)
22.01.2015 17:00 -2,5 C 1,5 C 84 % 84 % 1013,5 hPa 0,0 l/m 0,6 km/h (0 Bft) W 270 -4,8 C -2,9 C 6,0 km/h (2 Bft)
22.01.2015 17:05 -2,5 C 1,5 C 84 % 84 % 1013,5 hPa 0,0 l/m 1,3 km/h (1 Bft) W 270 -4,8 C -3,0 C 0,0 km/h (0 Bft)
22.01.2015 17:10 -2,6 C 1,5 C 84 % 84 % 1013,9 hPa 0,0 l/m 0,8 km/h (0 Bft) W 270 -4,9 C -3,1 C 0,0 km/h (0 Bft)
22.01.2015 17:15 -2,6 C 1,5 C 84 % 84 % 1013,9 hPa 0,0 l/m 0,0 km/h (0 Bft) N-NW 337 -4,9 C -3,1 C 0,0 km/h (0 Bft)
22.01.2015 17:20 -2,6 C 1,5 C 84 % 84 % 1013,9 hPa 0,0 l/m 1,1 km/h (1 Bft) W-SW 247 -4,9 C -3,2 C 0,0 km/h (0 Bft)
22.01.2015 17:25 -2,6 C 1,5 C 84 % 84 % 1013,9 hPa 0,0 l/m 1,1 km/h (1 Bft) W 270 -4,9 C -3,2 C 0,0 km/h (0 Bft)
22.01.2015 17:30 -2,6 C 1,5 C 84 % 84 % 1013,9 hPa 0,0 l/m 0,0 km/h (0 Bft) W-SW 247 -4,9 C -3,2 C 0,0 km/h (0 Bft)
22.01.2015 17:35 -2,6 C 1,5 C 84 % 84 % 1013,9 hPa 0,0 l/m 0,0 km/h (0 Bft) W 270 -4,9 C -3,2 C 0,0 km/h (0 Bft)
22.01.2015 17:40 -2,6 C 1,5 C 84 % 84 % 1013,9 hPa 0,0 l/m 0,0 km/h (0 Bft) W-NW 292 -4,9 C -3,2 C 0,0 km/h (0 Bft)
22.01.2015 17:45 -2,7 C 1,5 C 85 % 85 % 1013,9 hPa 0,0 l/m 0,2 km/h (0 Bft) W 270 -4,9 C -3,2 C 0,0 km/h (0 Bft)
22.01.2015 17:50 -2,8 C 1,5 C 85 % 85 % 1014,2 hPa 0,0 l/m 1,1 km/h (1 Bft) W-NW 292 -5,0 C -3,3 C 3,9 km/h (1 Bft)
22.01.2015 17:55 -2,8 C 1,5 C 85 % 85 % 1014,2 hPa 0,0 l/m 1,3 km/h (1 Bft) W 270 -5,0 C -3,3 C 0,0 km/h (0 Bft)
22.01.2015 18:00 -2,7 C 1,5 C 85 % 85 % 1014,2 hPa 0,0 l/m 0,8 km/h (0 Bft) W 270 -4,9 C -3,3 C 0,0 km/h (0 Bft)
22.01.2015 18:05 -2,7 C 1,5 C 85 % 85 % 1014,2 hPa 0,0 l/m 0,6 km/h (0 Bft) NW 315 -4,9 C -3,3 C 2,4 km/h (1 Bft)
22.01.2015 18:10 -2,7 C 1,5 C 85 % 85 % 1014,5 hPa 0,0 l/m 0,5 km/h (0 Bft) W-SW 247 -4,9 C -3,3 C 0,0 km/h (0 Bft)
22.01.2015 18:15 -2,6 C 1,5 C 85 % 85 % 1014,5 hPa 0,0 l/m 0,3 km/h (0 Bft) W 270 -4,8 C -3,3 C 0,0 km/h (0 Bft)
22.01.2015 18:20 -2,7 C 1,5 C 85 % 85 % 1014,5 hPa 0,0 l/m 0,2 km/h (0 Bft) NW 315 -4,9 C -3,2 C 2,3 km/h (1 Bft)
22.01.2015 18:25 -2,7 C 1,5 C 85 % 85 % 1014,5 hPa 0,0 l/m 0,2 km/h (0 Bft) SW 225 -4,9 C -3,2 C 0,0 km/h (0 Bft)
22.01.2015 18:30 -2,7 C 1,5 C 85 % 85 % 1014,7 hPa 0,0 l/m 0,2 km/h (0 Bft) W 270 -4,9 C -3,2 C 0,0 km/h (0 Bft)
22.01.2015 18:35 -2,6 C 1,5 C 85 % 85 % 1014,7 hPa 0,0 l/m 0,0 km/h (0 Bft) W-SW 247 -4,8 C -3,2 C 0,0 km/h (0 Bft)
22.01.2015 18:40 -2,6 C 1,5 C 85 % 85 % 1014,7 hPa 0,0 l/m 0,0 km/h (0 Bft) W 270 -4,8 C -3,2 C 0,0 km/h (0 Bft)
22.01.2015 18:45 -2,6 C 1,5 C 85 % 85 % 1014,7 hPa 0,0 l/m 0,0 km/h (0 Bft) W-SW 247 -4,8 C -3,2 C 0,0 km/h (0 Bft)
22.01.2015 18:50 -2,6 C 1,5 C 86 % 86 % 1014,9 hPa 0,0 l/m 0,0 km/h (0 Bft) W-SW 247 -4,6 C -3,1 C 0,0 km/h (0 Bft)
22.01.2015 18:55 -2,6 C 1,5 C 86 % 86 % 1014,9 hPa 0,0 l/m 0,0 km/h (0 Bft) S-SO 157 -4,6 C -3,1 C 0,0 km/h (0 Bft)
22.01.2015 19:00 -2,6 C 1,5 C 86 % 86 % 1014,9 hPa 0,0 l/m 0,5 km/h (0 Bft) NW 315 -4,6 C -3,1 C 2,9 km/h (1 Bft)
22.01.2015 19:05 -2,6 C 1,5 C 86 % 86 % 1014,9 hPa 0,0 l/m 1,6 km/h (1 Bft) W 270 -4,6 C -3,1 C 6,6 km/h (2 Bft)
22.01.2015 19:10 -2,6 C 1,5 C 86 % 86 % 1015,2 hPa 0,0 l/m 3,1 km/h (1 Bft) NW 315 -4,6 C -3,9 C 5,8 km/h (2 Bft)
22.01.2015 19:15 -2,6 C 1,5 C 86 % 86 % 1015,2 hPa 0,0 l/m 3,5 km/h (1 Bft) N-NW 337 -4,6 C -4,2 C 3,2 km/h (1 Bft)
22.01.2015 19:20 -2,6 C 1,5 C 86 % 86 % 1015,2 hPa 0,0 l/m 3,7 km/h (1 Bft) W 270 -4,6 C -4,3 C 5,8 km/h (2 Bft)
22.01.2015 19:25 -2,6 C 1,5 C 86 % 86 % 1015,2 hPa 0,0 l/m 3,5 km/h (1 Bft) W-NW 292 -4,6 C -4,2 C 3,4 km/h (1 Bft)
22.01.2015 19:30 -2,6 C 1,5 C 86 % 86 % 1015,4 hPa 0,0 l/m 2,4 km/h (1 Bft) W-SW 247 -4,6 C -3,4 C 2,7 km/h (1 Bft)
22.01.2015 19:35 -2,6 C 1,5 C 86 % 86 % 1015,4 hPa 0,0 l/m 1,8 km/h (1 Bft) W 270 -4,6 C -3,1 C 0,0 km/h (0 Bft)
22.01.2015 19:40 -2,6 C 1,5 C 86 % 86 % 1015,4 hPa 0,0 l/m 2,7 km/h (1 Bft) W 270 -4,6 C -3,7 C 3,9 km/h (1 Bft)
22.01.2015 19:45 -2,6 C 1,5 C 86 % 86 % 1015,4 hPa 0,0 l/m 2,6 km/h (1 Bft) W 270 -4,6 C -3,5 C 4,5 km/h (1 Bft)
22.01.2015 19:50 -2,6 C 1,5 C 86 % 86 % 1015,6 hPa 0,0 l/m 1,4 km/h (1 Bft) W-NW 292 -4,6 C -3,1 C 0,0 km/h (0 Bft)
22.01.2015 19:55 -2,6 C 1,5 C 86 % 86 % 1015,6 hPa 0,0 l/m 1,3 km/h (1 Bft) W-SW 247 -4,6 C -3,1 C 0,0 km/h (0 Bft)
22.01.2015 20:00 -2,5 C 1,5 C 86 % 86 % 1015,6 hPa 0,0 l/m 1,0 km/h (0 Bft) W 270 -4,5 C -3,1 C 4,7 km/h (1 Bft)
22.01.2015 20:05 -2,5 C 1,5 C 86 % 86 % 1015,6 hPa 0,0 l/m 0,8 km/h (0 Bft) W-NW 292 -4,5 C -3,1 C 0,0 km/h (0 Bft)
22.01.2015 20:10 -2,5 C 1,5 C 86 % 86 % 1015,8 hPa 0,0 l/m 0,8 km/h (0 Bft) SW 225 -4,5 C -3,1 C 0,0 km/h (0 Bft)
22.01.2015 20:15 -2,5 C 1,5 C 86 % 86 % 1015,8 hPa 0,0 l/m 0,2 km/h (0 Bft) S-SW 202 -4,5 C -3,1 C 3,2 km/h (1 Bft)
22.01.2015 20:20 -2,5 C 1,5 C 86 % 86 % 1015,8 hPa 0,0 l/m 0,2 km/h (0 Bft) SW 225 -4,5 C -3,1 C 0,0 km/h (0 Bft)
22.01.2015 20:25 -2,5 C 1,5 C 86 % 86 % 1015,8 hPa 0,0 l/m 0,2 km/h (0 Bft) W-SW 247 -4,5 C -3,0 C 0,0 km/h (0 Bft)
22.01.2015 20:30 -2,5 C 1,5 C 86 % 86 % 1015,8 hPa 0,0 l/m 0,0 km/h (0 Bft) SW 225 -4,5 C -3,0 C 0,0 km/h (0 Bft)
22.01.2015 20:35 -2,5 C 1,5 C 86 % 86 % 1015,8 hPa 0,0 l/m 0,0 km/h (0 Bft) W 270 -4,5 C -3,0 C 0,0 km/h (0 Bft)
22.01.2015 20:40 -2,5 C 1,5 C 87 % 87 % 1015,8 hPa 0,0 l/m 0,0 km/h (0 Bft) W 270 -4,4 C -3,0 C 0,0 km/h (0 Bft)
22.01.2015 20:45 -2,4 C 1,5 C 87 % 87 % 1015,8 hPa 0,0 l/m 0,3 km/h (0 Bft) W-NW 292 -4,3 C -3,0 C 2,4 km/h (1 Bft)
22.01.2015 20:50 -2,4 C 1,5 C 87 % 87 % 1015,8 hPa 0,0 l/m 0,6 km/h (0 Bft) W-SW 247 -4,3 C -3,0 C 0,0 km/h (0 Bft)
22.01.2015 20:55 -2,4 C 1,5 C 87 % 87 % 1015,8 hPa 0,0 l/m 0,5 km/h (0 Bft) W 270 -4,3 C -3,0 C 0,0 km/h (0 Bft)
22.01.2015 21:00 -2,4 C 1,5 C 87 % 87 % 1015,8 hPa 0,0 l/m 0,0 km/h (0 Bft) W-SW 247 -4,3 C -2,9 C 0,0 km/h (0 Bft)
22.01.2015 21:05 -2,4 C 1,5 C 87 % 87 % 1015,8 hPa 0,0 l/m 0,0 km/h (0 Bft) W 270 -4,3 C -2,9 C 0,0 km/h (0 Bft)
22.01.2015 21:10 -2,4 C 1,5 C 87 % 87 % 1015,9 hPa 0,0 l/m 0,0 km/h (0 Bft) NW 315 -4,3 C -2,9 C 0,0 km/h (0 Bft)
22.01.2015 21:15 -2,3 C 1,5 C 87 % 87 % 1015,9 hPa 0,0 l/m 0,0 km/h (0 Bft) W 270 -4,2 C -2,9 C 0,0 km/h (0 Bft)
22.01.2015 21:20 -2,3 C 1,5 C 87 % 87 % 1015,9 hPa 0,0 l/m 0,0 km/h (0 Bft) W-NW 292 -4,2 C -2,8 C 0,0 km/h (0 Bft)
22.01.2015 21:25 -2,3 C 1,5 C 87 % 87 % 1015,9 hPa 0,0 l/m 0,0 km/h (0 Bft) W 270 -4,2 C -2,8 C 0,0 km/h (0 Bft)
22.01.2015 21:30 -2,3 C 1,5 C 87 % 87 % 1015,9 hPa 0,0 l/m 0,2 km/h (0 Bft) W 270 -4,2 C -2,8 C 0,0 km/h (0 Bft)
22.01.2015 21:35 -2,2 C 1,5 C 87 % 87 % 1015,9 hPa 0,0 l/m 0,2 km/h (0 Bft) W 270 -4,1 C -2,8 C 0,0 km/h (0 Bft)
22.01.2015 21:40 -2,2 C 1,5 C 87 % 87 % 1015,9 hPa 0,0 l/m 0,5 km/h (0 Bft) W-SW 247 -4,1 C -2,8 C 2,9 km/h (1 Bft)
22.01.2015 21:45 -2,2 C 1,5 C 87 % 87 % 1015,9 hPa 0,0 l/m 0,6 km/h (0 Bft) W-NW 292 -4,1 C -2,8 C 0,0 km/h (0 Bft)
22.01.2015 21:50 -2,2 C 1,5 C 87 % 87 % 1016,1 hPa 0,0 l/m 0,3 km/h (0 Bft) NW 315 -4,1 C -2,8 C 0,0 km/h (0 Bft)
22.01.2015 21:55 -2,2 C 1,5 C 87 % 87 % 1016,1 hPa 0,0 l/m 0,0 km/h (0 Bft) W-NW 292 -4,1 C -2,8 C 0,0 km/h (0 Bft)
22.01.2015 22:00 -2,2 C 1,5 C 87 % 87 % 1016,1 hPa 0,0 l/m 0,6 km/h (0 Bft) W-SW 247 -4,1 C -2,8 C 0,0 km/h (0 Bft)
22.01.2015 22:05 -2,2 C 1,5 C 87 % 87 % 1016,1 hPa 0,0 l/m 0,6 km/h (0 Bft) SW 225 -4,1 C -2,8 C 0,0 km/h (0 Bft)
22.01.2015 22:10 -2,2 C 1,5 C 87 % 87 % 1016,1 hPa 0,0 l/m 0,2 km/h (0 Bft) W 270 -4,1 C -2,8 C 0,0 km/h (0 Bft)
22.01.2015 22:15 -2,2 C 1,5 C 87 % 87 % 1016,1 hPa 0,0 l/m 0,2 km/h (0 Bft) W 270 -4,1 C -2,8 C 0,0 km/h (0 Bft)
22.01.2015 22:20 -2,2 C 1,5 C 87 % 87 % 1016,1 hPa 0,0 l/m 0,0 km/h (0 Bft) W-NW 292 -4,1 C -2,8 C 0,0 km/h (0 Bft)
22.01.2015 22:25 -2,2 C 1,5 C 87 % 87 % 1016,1 hPa 0,0 l/m 0,3 km/h (0 Bft) NW 315 -4,1 C -2,7 C 2,4 km/h (1 Bft)
22.01.2015 22:30 -2,2 C 1,5 C 87 % 87 % 1016,2 hPa 0,0 l/m 1,4 km/h (1 Bft) W 270 -4,1 C -2,7 C 1,8 km/h (1 Bft)
22.01.2015 22:35 -2,2 C 1,5 C 87 % 87 % 1016,2 hPa 0,0 l/m 1,4 km/h (1 Bft) W-SW 247 -4,1 C -2,7 C 0,0 km/h (0 Bft)
22.01.2015 22:40 -2,2 C 1,5 C 87 % 87 % 1016,2 hPa 0,0 l/m 1,1 km/h (1 Bft) W 270 -4,1 C -2,7 C 3,9 km/h (1 Bft)
22.01.2015 22:45 -2,2 C 1,5 C 87 % 87 % 1016,2 hPa 0,0 l/m 1,4 km/h (1 Bft) W-NW 292 -4,1 C -2,7 C 1,8 km/h (1 Bft)
22.01.2015 22:50 -2,2 C 1,5 C 87 % 87 % 1016,2 hPa 0,0 l/m 1,8 km/h (1 Bft) W-SW 247 -4,1 C -2,8 C 0,0 km/h (0 Bft)
22.01.2015 22:55 -2,2 C 1,5 C 87 % 87 % 1016,2 hPa 0,0 l/m 0,8 km/h (0 Bft) W 270 -4,1 C -2,8 C 0,0 km/h (0 Bft)
22.01.2015 23:00 -2,2 C 1,5 C 87 % 87 % 1016,2 hPa 0,0 l/m 0,0 km/h (0 Bft) W-SW 247 -4,1 C -2,8 C 0,0 km/h (0 Bft)
22.01.2015 23:05 -2,2 C 1,5 C 87 % 87 % 1016,2 hPa 0,0 l/m 0,0 km/h (0 Bft) NW 315 -4,1 C -2,8 C 0,0 km/h (0 Bft)
22.01.2015 23:10 -2,2 C 1,5 C 87 % 87 % 1016,2 hPa 0,0 l/m 0,0 km/h (0 Bft) W 270 -4,1 C -2,8 C 0,0 km/h (0 Bft)
22.01.2015 23:15 -2,2 C 1,5 C 87 % 87 % 1016,2 hPa 0,0 l/m 0,0 km/h (0 Bft) W 270 -4,1 C -2,8 C 0,0 km/h (0 Bft)
22.01.2015 23:20 -2,2 C 1,5 C 87 % 87 % 1016,2 hPa 0,0 l/m 0,0 km/h (0 Bft) W 270 -4,1 C -2,8 C 0,0 km/h (0 Bft)
22.01.2015 23:25 -2,2 C 1,5 C 87 % 87 % 1016,2 hPa 0,0 l/m 0,0 km/h (0 Bft) W 270 -4,1 C -2,8 C 0,0 km/h (0 Bft)
22.01.2015 23:30 -2,2 C 1,5 C 87 % 87 % 1016,4 hPa 0,0 l/m 0,8 km/h (0 Bft) NW 315 -4,1 C -2,8 C 0,0 km/h (0 Bft)
22.01.2015 23:35 -2,2 C 1,5 C 87 % 87 % 1016,4 hPa 0,0 l/m 0,8 km/h (0 Bft) W 270 -4,1 C -2,8 C 0,0 km/h (0 Bft)
22.01.2015 23:40 -2,2 C 1,5 C 87 % 87 % 1016,4 hPa 0,0 l/m 0,0 km/h (0 Bft) N-NW 337 -4,1 C -2,8 C 0,0 km/h (0 Bft)
22.01.2015 23:45 -2,2 C 1,5 C 87 % 87 % 1016,4 hPa 0,0 l/m 1,0 km/h (0 Bft) W 270 -4,1 C -2,8 C 3,2 km/h (1 Bft)
22.01.2015 23:50 -2,2 C 1,5 C 87 % 87 % 1016,6 hPa 0,0 l/m 1,1 km/h (1 Bft) W 270 -4,1 C -2,8 C 0,0 km/h (0 Bft)
22.01.2015 23:55 -2,2 C 1,5 C 87 % 87 % 1016,6 hPa 0,0 l/m 0,5 km/h (0 Bft) W 270 -4,1 C -2,8 C 0,0 km/h (0 Bft)
_ Min-Zeit 01:35 16:15 12:50 14:00 05:45 - 23:40 - - 01:35 19:20 23:55
Minimum _ -3,5 C 1,4 C 73 % 78 % 1009,0 hPa - 0,0 km/h (0 Bft) - - -5,0 C -4,3 C 0,0 km/h (0 Bft)
_ Max-Zeit 11:50 23:55 10:05 10:05 23:55 23:55 19:20 - - 11:35 11:55 16:40
Maximum _ 3,0 C 1,5 C 89 % 89 % 1016,6 hPa 0,0 l/m 3,7 km/h
W (1 Bft)
- - -0,0 C 4,0 C 7,6 km/h
NW (2 Bft)
Durchschnitt _ -2,1 C 1,5 C 86 % 86 % 1012,2 hPa #0,0 l/m 0,4 km/h (0 Bft) W - -4,2 C -2,5 C 0,7 km/h (0 Bft)